This demonstration page uses our WeatherBlox Daily Observations layout. Learn more.

Left ArrowRight Arrow

Hourly Observations for June 27, 2015

Temp ( °F °C ) Dew Point ( °F °C ) Humidity (%) Winds ( mph kmh ) Pressure ( in mb ) Visibility ( mi km ) Precip ( " mm )
12:51 am 00:51 Clear 83 28.3 52 11.1 34 34 E 9 15 29.84 1011 10 16 0.00 0.00
1:51 am 01:51 Clear 84 28.9 52 11.1 33 33 E 12 19 29.85 1011 10 16 0.00 0.00
2:51 am 02:51 Clear 83 28.3 52 11.1 34 34 VRB 7 11 29.85 1011 10 16 0.00 0.00
3:51 am 03:51 Clear 81 27.2 52 11.1 37 37 SW 3 6 29.84 1011 10 16 0.00 0.00
4:51 am 04:51 Clear 78 25.6 58 14.4 50 50 S 12 19 29.89 1012 10 16 0.00 0.00
5:51 am 05:51 Sunny 69 20.6 55 12.8 61 61 ESE 7 11 30.12 1020 10 16 0.00 0.00
6:51 am 06:51 Sunny 77 25 61 16.1 58 58 SSE 7 11 29.93 1014 10 16 0.00 0.00
7:51 am 07:51 Sunny 82 27.8 60 15.6 47 47 SE 9 15 29.94 1014 10 16 0.00 0.00
8:51 am 08:51 Sunny 85 29.4 58 14.4 40 40 SE 7 11 29.95 1014 10 16 0.00 0.00
9:51 am 09:51 Sunny 73 22.8 44 6.7 35 35 S 6 9 30.04 1017 10 16 0.00 0.00
10:51 am 10:51 Sunny 92 33.3 55 12.8 29 29 SE 9 15 29.92 1013 10 16 0.00 0.00
11:51 am 11:51 Sunny 95 35 56 13.3 27 27 S 10 17 29.89 1012 10 16 0.00 0.00
12:51 pm 12:51 Sunny 97 36.1 55 12.8 24 24 S 10 17 29.86 1011 10 16 0.00 0.00
1:51 pm 13:51 Sunny 100 37.8 54 12.2 21 21 S 9 15 29.80 1009 10 16 0.00 0.00
2:09 pm 14:09 Sunny with Nearby Thunderstorms 100 38 54 12 21 21 S 15 24 29.68 1005 10 16 0.00 0.00
2:24 pm 14:24 Sunny 102 39 52 11 18 18 SE 15 24 29.65 1004 10 16 0.00 0.00
2:51 pm 14:51 Sunny with Nearby Thunderstorms 102 38.9 52 11.1 19 19 Calm 29.78 1008 10 16 0.00 0.00
3:18 pm 15:18 Mostly Cloudy with Strong Thunderstorms 88 31.1 62 16.7 42 42 SE 9 15 29.74 1007 3 5 0.03 0.76
3:23 pm 15:23 Cloudy with Strong Thunderstorms 84 29 64 18 51 51 WSW 7 11 29.77 1008 2 3 0.00 0.00
3:34 pm 15:34 Mostly Cloudy with Thunderstorms 85 29.4 57 13.9 39 39 NW 15 24 29.77 1008 3 5 0.21 5.33
3:51 pm 15:51 Cloudy with Nearby Thunderstorms 87 30.6 59 15 39 39 NE 22 35 29.84 1010 10 16 0.21 5.33
4:51 pm 16:51 Partly Cloudy with Nearby Thunderstorms 81 27.2 58 14.4 45 45 NNE 32 52 29.86 1011 10 16 0.00 0.03
5:18 pm 17:18 Partly Cloudy with Light Rain 81 27.2 57 13.9 44 44 NNE 28 44 29.80 1009 10 16 0.00 0.03
5:51 pm 17:51 Partly Cloudy with Light Rain 80 26.7 56 13.3 44 44 NNE 22 35 29.87 1011 10 16 0.00 0.03
6:07 pm 18:07 Mostly Cloudy 81 27 57 14 45 45 WSW 15 24 29.83 1010 10 16 0.00 0.00
6:51 pm 18:51 Mostly Sunny 78 25.6 59 15 52 52 WNW 17 28 29.89 1012 10 16 0.00 0.03
7:51 pm 19:51 Clear 76 24.4 62 16.7 62 62 NNW 8 13 29.93 1013 10 16 0.00 0.00
8:51 pm 20:51 Clear 74 23.3 62 16.7 67 67 NW 8 13 29.91 1013 10 16 0.00 0.00
9:51 pm 21:51 Clear 75 23.9 62 16.7 64 64 SW 3 6 29.92 1013 10 16 0.00 0.00
10:51 pm 22:51 Clear 73 22.8 64 17.8 74 74 WSW 5 7 29.94 1014 10 16 0.00 0.00
11:51 pm 23:51 Clear 55 12.8 41 5 59 59 N 3 6 29.98 1015 10 16 0.07 1.78

Powered by AerisWeather